Temp
54 53 52 51 51 50 49 50 51 51 50 50 50 49 49 49 48 49 49 48 48 48
51 51 49 49 49 49 49 49 48 48 48 48 48 48 48 47 46 46 46 46 46 47
51 50 50 49 48 48 49 49 48 48 47 47 46 46 45 44 44 45 44 45 45 45
50 50 50 49 49 48 48 48 47 47 47 46 45 44 43 42 42 42 40 40 42 42
50 50 49 48 48 48 48 48 47 46 45 43 42 41 40 41 41 40 39 39 39 39
49 49 48 48 48 48 47 46 45 44 43 42 41 40 40 40 40 39 39 39 37 37
49 50 49 49 48 48 48 46 46 45 44 43 43 43 43 42 40 38 38 37 37 36
49 50 50 49 48 49 48 48 47 45 45 44 43 43 42 40 37 37 35 33 34 33
51 51 50 49 48 48 48 46 46 44 43 41 43 41 40 40 37 37 34 32 32 33
50 50 49 49 47 46 44 44 43 42 42 40 40 40 40 39 37 34 33 32 30 31
50 49 49 48 46 45 45 42 42 41 40 40 38 40 40 38 36 34 32 31 31 29
49 48 48 46 41 44 44 42 37 37 37 36 35 39 39 37 34 32 30 29 28 26
47 48 43 46 42 40 44 39 40 37 36 38 35 39 39 36 34 31 30 27 26 31
45 48 47 42 43 42 39 40 37 36 36 35 35 36 38 37 34 34 31 28 24 26
MSLP
1011.48 1012.10 1012.62 1013.05 1013.31 1013.58 1013.95 1014.48 1014.73 1014.66 1015.27 1015.47 1015.95 1016.14 1016.57 1017.38 1017.64 1017.95 1018.13 1018.38 1019.82 1020.14
1011.90 1012.17 1012.48 1013.11 1013.64 1013.64 1014.18 1014.45 1014.95 1015.23 1015.33 1015.48 1016.23 1016.47 1016.70 1016.98 1017.42 1018.13 1018.46 1019.31 1019.51 1020.09
1012.16 1012.36 1012.83 1013.16 1013.56 1013.73 1013.99 1014.57 1014.97 1015.59 1015.86 1016.26 1016.34 1017.16 1017.36 1017.88 1018.22 1019.06 1018.73 1018.88 1020.38 1020.93
1011.99 1012.06 1012.36 1012.70 1012.89 1013.35 1013.79 1014.40 1014.67 1015.39 1015.89 1016.33 1016.92 1017.51 1017.92 1018.54 1018.90 1019.05 1019.41 1019.78 1020.42 1020.97
1012.34 1012.77 1013.05 1013.31 1013.72 1013.71 1013.84 1014.45 1014.79 1015.25 1015.91 1016.42 1016.95 1017.54 1018.21 1019.03 1019.04 1018.97 1019.72 1020.51 1021.00 1021.11
1012.07 1012.69 1013.14 1013.61 1014.06 1014.28 1014.53 1014.79 1015.13 1015.74 1016.47 1017.09 1017.29 1017.73 1017.92 1018.51 1019.15 1019.60 1020.18 1020.56 1020.93 1021.34
1011.89 1012.17 1012.69 1013.54 1013.82 1014.05 1014.43 1014.78 1015.36 1015.85 1016.00 1016.82 1017.30 1017.97 1018.24 1018.84 1019.75 1019.57 1020.20 1020.48 1021.09 1021.66
1011.72 1011.91 1012.37 1012.89 1013.56 1013.79 1014.58 1014.97 1015.04 1015.00 1016.25 1016.32 1017.41 1017.88 1018.43 1018.72 1019.32 1019.45 1020.48 1020.75 1021.47 1022.15
1011.70 1011.72 1012.22 1012.69 1013.04 1013.67 1014.21 1014.53 1014.91 1015.69 1015.72 1016.14 1016.89 1017.49 1018.32 1018.49 1018.97 1019.55 1020.09 1021.16 1021.61 1021.98
1010.82 1011.17 1011.78 1012.09 1012.29 1013.14 1014.02 1014.41 1014.48 1015.10 1015.49 1016.08 1016.46 1017.26 1018.04 1018.29 1018.85 1019.38 1019.63 1020.47 1021.65 1022.05
1010.85 1010.85 1010.97 1011.25 1011.47 1011.99 1013.18 1013.78 1013.70 1014.33 1014.29 1015.73 1016.23 1017.09 1017.58 1017.97 1018.98 1019.50 1019.71 1020.41 1021.21 1021.77
1010.51 1010.59 1010.73 1010.53 1010.84 1011.08 1011.97 1012.54 1013.10 1013.31 1014.43 1015.33 1015.91 1016.38 1017.33 1017.95 1018.82 1019.32 1019.94 1020.36 1020.97 1021.40
1010.20 1009.63 1009.62 1009.93 1010.34 1010.69 1010.85 1011.66 1012.47 1013.28 1013.34 1014.17 1014.97 1015.94 1016.92 1017.62 1018.60 1019.04 1019.70 1020.51 1021.38 1021.47
1009.09 1008.96 1009.07 1009.14 1009.25 1009.84 1010.11 1010.29 1010.42 1011.77 1012.71 1013.28 1014.29 1015.55 1016.16 1016.82 1017.49 1018.21 1018.97 1020.03 1020.90 1021.65
Wind_Speed
6 4 2 2 4 4 5 6 6 7 5 9 8 8 8 7 5 7 9 12 6 5
4 5 6 7 4 5 6 6 6 7 9 9 5 6 6 6 7 6 7 7 8 7
4 6 6 8 8 9 9 8 9 6 6 5 7 5 5 5 5 6 4 5 7 4
6 7 7 7 9 10 9 10 9 7 7 7 6 5 5 4 6 6 6 5 7 6
6 5 5 5 6 7 9 8 9 8 7 6 6 6 6 6 5 7 6 6 6 6
8 7 7 7 7 7 8 8 8 8 6 6 6 6 6 5 5 6 6 6 6 6
9 9 8 9 9 8 8 9 9 8 9 7 7 7 7 6 5 7 6 6 6 5
8 8 9 9 10 9 8 8 9 11 8 9 6 6 8 9 8 9 7 7 7 5
6 9 10 9 9 8 9 7 9 8 10 10 7 12 13 12 9 9 10 9 7 6
11 12 10 9 10 9 10 11 12 11 10 10 8 15 15 14 9 10 11 11 9 7
8 11 12 16 15 15 13 13 12 12 12 11 8 15 16 16 9 8 9 10 10 9
9 11 12 14 13 13 12 11 10 10 12 12 9 19 20 16 10 9 8 8 8 9
9 12 13 15 15 13 13 12 9 10 12 15 12 20 23 16 8 9 8 6 5 15
8 11 12 10 9 12 13 13 16 15 12 12 12 14 24 23 12 10 9 8 7 6
Wind_Direction
127 122 117 131 157 143 143 144 155 132 130 136 133 134 131 121 145 159 137 139 143 141
122 136 136 133 134 137 135 138 131 143 148 141 146 149 141 134 138 130 131 129 130 130
138 137 146 144 160 158 148 153 150 155 147 130 122 113 102 118 120 138 97 129 127 124
156 156 158 164 162 160 148 155 147 143 134 124 120 121 112 129 155 133 133 129 149 152
135 137 139 156 159 153 146 146 141 139 139 136 140 138 146 170 155 136 133 156 153 142
152 155 157 160 158 157 149 138 132 136 140 153 148 143 142 132 137 136 151 145 136 136
173 165 163 168 170 167 158 154 155 161 155 156 157 166 158 145 153 134 130 121 113 127
178 176 165 164 170 170 170 181 167 158 168 152 163 161 167 156 159 132 120 109 112 109
182 177 181 172 169 173 178 169 161 169 161 157 171 167 167 157 147 143 135 126 110 109
189 187 182 175 159 165 175 172 177 180 172 180 178 173 167 148 154 152 147 142 141 132
217 208 185 182 183 178 188 192 189 183 170 177 183 179 165 153 156 156 146 150 152 144
199 200 207 200 204 195 187 189 182 174 174 179 186 175 167 155 160 150 150 151 146 142
220 210 208 205 198 204 184 186 192 192 179 184 177 178 164 151 155 151 146 130 143 158
225 221 215 220 209 209 202 201 183 184 180 171 168 173 165 161 163 168 153 157 158 169